Location: Krasnoyarskiy Pitomnik
(51.1333°N, 71.6167°E)
Time: 10:25:28
(UTC+00:00)

Okean-O - Pass Details

Date: 22 October 2021
Orbit: 639 x 640 km, 98.2° (Epoch: 07 December)

Event Time Altitude Azimuth Distance (km) Brightness Sun altitude
Exits shadow 14:00:06 24° 146° (SE) 1,333 3.9 -18.5°
Maximum altitude 14:02:41 63° 71° (ENE) 717 2.6 -18.9°
Drops below altitude 10° 14:07:05 10° 351° (N) 2,046 5.4 -19.6°
Sets 14:09:19 0° 348° (NNW) 2,960 6.3 -19.9°
